Location: Erlenbrunn
(49.1717°N, 7.6142°E)
Time: 06:31:07
(UTC+00:00)

Cosmos 2366 rocket - Pass Details

Date: 25 November 2020
Orbit: 955 x 997 km, 82.9° (Epoch: 27 January)

Event Time Altitude Azimuth Distance (km) Brightness Sun altitude
Rises 17:25:34 0° 351° (N) 3,683 7.0 -17.1°
Reaches altitude 10° 17:28:07 10° 354° (N) 2,725 6.3 -17.5°
Maximum altitude 17:34:21 72° 79° (E) 1,015 3.9 -18.5°
Drops below altitude 10° 17:40:29 10° 164° (SSE) 2,684 6.2 -19.5°
Sets 17:42:58 0° 166° (SSE) 3,623 6.9 -19.9°
